[[{"header":{"parameterUnit":"m.s-1","parameterCategory":1,"la1":30.2991,"la2":30.254,"lo1":-89.0895,"lo2":-89.0444,"dy":0.0017,"dx":0.0017,"nx":28,"ny":28,"refTime":"2024-10-08T03:00:00:Z","depth":0,"parameterNumber":2,"parameterNumberName":"U-component_of_WINDS"},"data":[0,0,0,0,0,0,0,0,0,0,0,0,0,0,0,0,0,0,0,0,0,0,0,0,0,0,0,0,0,0,0,0,0,0,0,0,0,0,0,0,0,0,0,0,0,0,0,0,0,0,0,0,0,0,0,0,0,0,-0.7563,-0.7563,0,-0.7525,-0.7524,-0.7524,-0.7513,-0.7513,-0.7513,-0.7513,-0.7473,-0.7472,-0.747,0,0,0,0,0,0,0,0,0,0,0,0,0,-0.7623,-0.7622,-0.7563,-0.7562,-0.7562,-0.7525,-0.7524,-0.7524,-0.7513,-0.7513,-0.7513,-0.7513,-0.7473,-0.7472,-0.747,0,0,0,0,0,0,0,0,0,0,0,0,0,-0.7592,-0.7622,-0.7563,-0.7552,-0.7551,-0.7525,-0.7524,-0.7524,-0.7512,-0.7513,-0.7513,-0.7513,-0.7474,-0.7472,-0.747,-0.7452,0,0,-0.7464,-0.7463,0,0,0,0,0,0,0,0,-0.7594,-0.759,-0.7554,-0.7553,-0.7551,-0.7524,-0.7531,-0.75,-0.7512,-0.7527,-0.7513,-0.7513,-0.7489,-0.7486,-0.7478,-0.7451,-0.7449,-0.7464,-0.7463,-0.7462,-0.7462,0,0,0,0,0,0,0,-0.7596,-0.7592,-0.7548,-0.7553,-0.7552,-0.7548,-0.7544,-0.7525,-0.7507,-0.7526,-0.7525,-0.752,-0.7489,-0.748,-0.7477,-0.7448,-0.7464,-0.7462,-0.7461,-0.7461,-0.7402,-0.7401,0,0,0,0,0,0,-0.7601,-0.7594,-0.7549,-0.7547,-0.7574,-0.7547,-0.7542,-0.7532,-0.7507,-0.7504,-0.752,-0.752,-0.7483,-0.748,-0.7476,-0.7452,-0.7462,-0.746,-0.7459,-0.7402,-0.7402,-0.7401,0,0,0,0,0,0,-0.7602,-0.7597,-0.7551,-0.757,-0.7564,-0.7545,-0.7534,-0.7531,-0.7523,-0.7503,-0.75,-0.7515,-0.7483,-0.7479,-0.7458,-0.7451,-0.746,-0.7458,-0.7403,-0.7402,-0.7401,-0.7406,0,0,0,0,0,0,-0.7604,-0.7597,-0.7591,-0.757,-0.7563,-0.7534,-0.7534,-0.753,-0.752,-0.7519,-0.7497,-0.7494,-0.7483,-0.7461,-0.7456,-0.7448,-0.7456,-0.7403,-0.7402,-0.7401,-0.7406,-0.7405,-0.7405,0,0,0,0,0,-0.7606,-0.7594,-0.7591,-0.7586,-0.7555,-0.7534,-0.753,-0.7518,-0.7519,-0.7512,-0.7499,-0.7495,-0.7452,-0.7459,-0.7453,-0.7445,-0.7404,-0.7403,-0.7402,-0.7406,-0.7405,-0.7405,0,0,0,0,0,0,-0.7615,-0.7591,-0.7587,-0.7569,-0.7553,-0.7532,-0.7523,-0.7518,-0.7501,-0.7501,-0.7487,-0.7482,-0.7462,-0.7452,-0.7459,-0.7425,-0.7428,-0.7426,-0.7433,-0.7432,-0.7431,-0.7434,-0.7455,0,0,0,0,0,-0.7615,-0.7601,-0.758,-0.7565,-0.7558,-0.7542,-0.7532,-0.7524,-0.7508,-0.7501,-0.7487,-0.747,-0.7453,-0.7442,-0.7425,-0.7404,-0.7399,-0.7396,-0.7395,-0.7395,-0.7393,-0.7379,-0.7377,-0.7398,-0.7398,-0.7398,0,0,-0.7614,-0.76,-0.7591,-0.7567,-0.7554,-0.7538,-0.7536,-0.752,-0.7508,-0.7499,-0.7478,-0.7467,-0.7447,-0.7426,-0.7416,-0.7416,-0.7386,-0.7393,-0.7393,-0.7391,-0.7378,-0.7376,-0.7374,-0.7397,-0.7397,-0.7397,0,0,-0.7605,-0.7593,-0.7579,-0.7566,-0.7547,-0.7536,-0.7532,-0.7511,-0.7503,-0.7482,-0.7474,-0.7459,-0.743,-0.7416,-0.7405,-0.7389,-0.7383,-0.7384,-0.738,-0.7366,-0.7365,-0.7363,-0.7356,-0.7354,-0.7382,-0.7382,-0.7382,0,-0.7607,-0.7584,-0.7572,-0.7556,-0.7545,-0.7535,-0.7519,-0.7507,-0.7483,-0.7475,-0.7476,-0.7438,-0.7425,-0.7399,-0.7395,-0.7387,-0.7381,-0.7386,-0.7366,-0.7364,-0.7363,-0.7356,-0.7353,-0.7382,-0.7382,-0.7382,-0.7382,0,-0.7586,-0.757,-0.7561,-0.7538,-0.7525,-0.751,-0.7494,-0.7483,-0.7476,-0.7464,-0.7442,-0.7425,-0.7404,-0.7397,-0.739,-0.737,-0.7371,-0.7369,-0.7371,-0.7361,-0.7354,-0.7351,-0.7382,-0.7382,-0.7382,-0.7382,0,0,-0.7583,-0.7553,-0.7549,-0.7538,-0.7515,-0.7502,-0.7485,-0.7464,-0.7454,-0.7437,-0.7422,-0.7396,-0.7394,-0.7382,-0.7373,-0.7362,-0.7348,-0.7361,-0.736,-0.7358,-0.7322,-0.7323,-0.732,-0.7344,-0.7343,-0.7343,-0.7324,0,-0.7571,-0.7541,-0.7529,-0.7504,-0.7488,-0.7477,-0.7462,-0.7446,-0.7434,-0.7418,-0.7405,-0.7387,-0.7386,-0.7378,-0.7366,-0.7352,-0.734,-0.7353,-0.7328,-0.7327,-0.7333,-0.7317,-0.7318,-0.7301,-0.7321,-0.732,-0.732,0,-0.7553,-0.7535,-0.7509,-0.7486,-0.7479,-0.7466,-0.7445,-0.743,-0.741,-0.7402,-0.7388,-0.7379,-0.7359,-0.7362,-0.7334,-0.7343,-0.7332,-0.7323,-0.7322,-0.7319,-0.7323,-0.7312,-0.7295,-0.7292,-0.7316,-0.7316,-0.7317,0,-0.7551,-0.7522,-0.7502,-0.7492,-0.7466,-0.7456,-0.7444,-0.7425,-0.7413,-0.7394,-0.7386,-0.7365,-0.7353,-0.7337,-0.7322,-0.7326,-0.7295,-0.7297,-0.7287,-0.7287,-0.728,-0.7281,-0.726,-0.7275,-0.7275,-0.7275,-0.7275,0,-0.7539,-0.7523,-0.7501,-0.7488,-0.7469,-0.7455,-0.7436,-0.7423,-0.7406,-0.739,-0.738,-0.7365,-0.7346,-0.7329,-0.7317,-0.7294,-0.729,-0.7282,-0.7279,-0.7282,-0.7283,-0.7274,-0.7275,-0.7274,-0.7274,-0.7274,-0.7274,0,-0.7534,-0.7519,-0.7496,-0.7473,-0.7466,-0.7453,-0.7432,-0.7419,-0.7406,-0.7386,-0.738,-0.736,-0.7338,-0.7322,-0.7294,-0.7286,-0.7261,-0.7259,-0.7268,-0.7266,-0.7256,-0.7257,-0.7229,-0.7224,-0.7242,-0.7242,-0.7242,0,-0.7527,-0.7514,-0.7489,-0.7477,-0.7466,-0.7448,-0.7435,-0.7419,-0.7406,-0.7381,-0.7371,-0.7348,-0.7329,-0.7295,-0.7277,-0.7255,-0.7251,-0.7243,-0.7248,-0.7251,-0.725,-0.725,-0.7248,-0.7242,-0.7242,-0.7242,-0.7242,0,-0.7515,-0.7508,-0.749,-0.7469,-0.7453,-0.7436,-0.7418,-0.7409,-0.739,-0.7376,-0.7353,-0.7339,-0.7309,-0.7287,-0.7262,-0.7249,-0.7241,-0.724,-0.7236,-0.724,-0.7245,-0.724,-0.7265,-0.7241,-0.7241,-0.7241,-0.7241,-0.7241,-0.7508,-0.7496,-0.7475,-0.7455,-0.744,-0.7423,-0.7409,-0.7394,-0.7375,-0.7351,-0.7342,-0.7319,-0.7297,-0.7264,-0.725,-0.723,-0.723,-0.7225,-0.7224,-0.7222,-0.7222,-0.7248,-0.7226,-0.7226,-0.7226,-0.7226,-0.7226,0,-0.7495,-0.7481,-0.7462,-0.7438,-0.7421,-0.7416,-0.7395,-0.7382,-0.7361,-0.7342,-0.7323,-0.7296,-0.7274,-0.7253,-0.7229,-0.7218,-0.7213,-0.7212,-0.7212,-0.7209,-0.7224,-0.7229,-0.7215,-0.7215,-0.7215,-0.7215,-0.7215,-0.7215,-0.7486,-0.7464,-0.7454,-0.7424,-0.7409,-0.7386,-0.7375,-0.7359,-0.7343,-0.7314,-0.7295,-0.7282,-0.7261,-0.7235,-0.7214,-0.7208,-0.7199,-0.7198,-0.7192,-0.7207,-0.7208,-0.7209,-0.7214,-0.7197,-0.7197,-0.7178,-0.7178,-0.7177]},{"header":{"parameterUnit":"m.s-1","parameterCategory":1,"la1":30.2991,"la2":30.254,"lo1":-89.0895,"lo2":-89.0444,"dy":0.0017,"dx":0.0017,"nx":28,"ny":28,"refTime":"2024-10-08T03:00:00:Z","depth":0,"parameterNumber":3,"parameterNumberName":"V-component_of_WINDS"},"data":[0,0,0,0,0,0,0,0,0,0,0,0,0,0,0,0,0,0,0,0,0,0,0,0,0,0,0,0,0,0,0,0,0,0,0,0,0,0,0,0,0,0,0,0,0,0,0,0,0,0,0,0,0,0,0,0,0,0,-3.6047,-3.6046,0,-3.6008,-3.6008,-3.6007,-3.5982,-3.5982,-3.5982,-3.5982,-3.5939,-3.5938,-3.5937,0,0,0,0,0,0,0,0,0,0,0,0,0,-3.6097,-3.6096,-3.6047,-3.6046,-3.6046,-3.6008,-3.6008,-3.6007,-3.5982,-3.5982,-3.5982,-3.5982,-3.5939,-3.5938,-3.5936,0,0,0,0,0,0,0,0,0,0,0,0,0,-3.6068,-3.6096,-3.6047,-3.6029,-3.6027,-3.6008,-3.6008,-3.6007,-3.5982,-3.5982,-3.5982,-3.5982,-3.5939,-3.5938,-3.5936,-3.5931,0,0,-3.5932,-3.5931,0,0,0,0,0,0,0,0,-3.607,-3.6066,-3.6032,-3.603,-3.6028,-3.6,-3.6009,-3.5981,-3.5982,-3.5999,-3.5982,-3.5982,-3.5959,-3.5956,-3.5949,-3.5929,-3.5927,-3.5931,-3.5931,-3.593,-3.5929,0,0,0,0,0,0,0,-3.6072,-3.6068,-3.6031,-3.6032,-3.6029,-3.6022,-3.6018,-3.6004,-3.5981,-3.5998,-3.5996,-3.5992,-3.5958,-3.595,-3.5948,-3.5927,-3.5932,-3.593,-3.5929,-3.5929,-3.5903,-3.5903,0,0,0,0,0,0,-3.6077,-3.607,-3.6033,-3.603,-3.6049,-3.6022,-3.6017,-3.6009,-3.5981,-3.5976,-3.5992,-3.5991,-3.5953,-3.5949,-3.5946,-3.594,-3.593,-3.5928,-3.5928,-3.5903,-3.5903,-3.5903,0,0,0,0,0,0,-3.6078,-3.6074,-3.6034,-3.605,-3.6044,-3.6021,-3.6012,-3.6008,-3.6001,-3.5976,-3.5972,-3.5989,-3.5953,-3.5948,-3.5936,-3.5938,-3.5928,-3.5926,-3.5903,-3.5903,-3.5903,-3.5926,0,0,0,0,0,0,-3.608,-3.6075,-3.6073,-3.605,-3.6043,-3.6025,-3.6013,-3.6008,-3.5999,-3.5997,-3.5972,-3.5968,-3.5952,-3.5938,-3.5934,-3.5935,-3.5925,-3.5902,-3.5903,-3.5903,-3.5925,-3.5927,-3.5929,0,0,0,0,0,-3.6082,-3.608,-3.6073,-3.6069,-3.6041,-3.6025,-3.6022,-3.6004,-3.5999,-3.5997,-3.5982,-3.5969,-3.5938,-3.5937,-3.5933,-3.5933,-3.5902,-3.5903,-3.5903,-3.5924,-3.5927,-3.5929,0,0,0,0,0,0,-3.6102,-3.6076,-3.6068,-3.6059,-3.6045,-3.6021,-3.6018,-3.6007,-3.5993,-3.5992,-3.597,-3.5965,-3.5955,-3.5943,-3.5942,-3.5928,-3.5919,-3.5918,-3.5936,-3.5939,-3.5941,-3.5944,-3.5924,0,0,0,0,0,-3.6105,-3.6096,-3.6074,-3.6067,-3.6061,-3.6041,-3.6033,-3.6022,-3.6006,-3.5999,-3.5983,-3.5967,-3.5954,-3.5945,-3.5932,-3.5923,-3.5918,-3.5922,-3.5924,-3.5926,-3.5925,-3.5922,-3.5923,-3.5905,-3.5905,-3.5905,0,0,-3.6112,-3.6097,-3.6092,-3.6071,-3.6059,-3.6049,-3.6036,-3.6026,-3.6018,-3.5997,-3.5985,-3.5973,-3.5954,-3.5944,-3.5939,-3.5933,-3.593,-3.5926,-3.5928,-3.5927,-3.5922,-3.5924,-3.5926,-3.5906,-3.5906,-3.5905,0,0,-3.6119,-3.6107,-3.6101,-3.609,-3.6072,-3.6059,-3.6058,-3.6036,-3.6028,-3.6016,-3.6001,-3.5991,-3.5969,-3.5957,-3.5947,-3.5953,-3.5941,-3.5949,-3.5959,-3.5956,-3.5957,-3.5959,-3.5962,-3.5963,-3.5949,-3.5949,-3.5949,0,-3.6129,-3.6115,-3.6099,-3.6091,-3.6082,-3.6065,-3.6059,-3.6048,-3.6027,-3.6021,-3.6016,-3.5989,-3.5975,-3.5963,-3.5965,-3.5957,-3.5955,-3.5951,-3.5959,-3.596,-3.596,-3.5963,-3.5964,-3.595,-3.595,-3.595,-3.595,0,-3.6129,-3.612,-3.6117,-3.6099,-3.609,-3.6083,-3.6065,-3.6059,-3.6048,-3.6036,-3.6025,-3.6008,-3.5991,-3.5987,-3.5976,-3.5974,-3.5972,-3.5963,-3.5953,-3.5964,-3.5966,-3.5967,-3.5952,-3.5951,-3.5951,-3.5951,0,0,-3.6146,-3.6121,-3.6121,-3.6113,-3.6093,-3.6085,-3.6078,-3.6064,-3.6059,-3.6045,-3.6038,-3.6021,-3.6014,-3.6003,-3.5991,-3.5988,-3.5995,-3.5979,-3.5978,-3.5984,-3.5993,-3.6001,-3.6002,-3.5987,-3.5988,-3.5988,-3.5996,0,-3.6151,-3.6138,-3.6124,-3.6116,-3.6108,-3.6092,-3.6086,-3.6073,-3.6062,-3.6053,-3.604,-3.6028,-3.6019,-3.6013,-3.6009,-3.5995,-3.5997,-3.5994,-3.5981,-3.5981,-3.5987,-3.6003,-3.601,-3.6018,-3.5996,-3.5996,-3.5996,0,-3.6155,-3.6144,-3.6135,-3.6119,-3.6115,-3.6109,-3.6096,-3.6088,-3.6073,-3.6065,-3.6056,-3.6043,-3.6035,-3.6026,-3.6015,-3.6014,-3.6007,-3.6,-3.6,-3.5998,-3.5989,-3.6002,-3.602,-3.6022,-3.5997,-3.5997,-3.5997,0,-3.6169,-3.6153,-3.6146,-3.6139,-3.6119,-3.6116,-3.6108,-3.6093,-3.6086,-3.6075,-3.607,-3.6057,-3.605,-3.604,-3.6025,-3.602,-3.6015,-3.6005,-3.6009,-3.6009,-3.6008,-3.6008,-3.6026,-3.6004,-3.6003,-3.6003,-3.6003,0,-3.6176,-3.6172,-3.6152,-3.6148,-3.6143,-3.6127,-3.6123,-3.6112,-3.61,-3.6094,-3.6079,-3.6073,-3.6053,-3.6045,-3.6032,-3.6026,-3.6022,-3.6016,-3.6012,-3.6017,-3.6018,-3.6013,-3.6012,-3.6004,-3.6004,-3.6004,-3.6004,0,-3.6191,-3.6178,-3.617,-3.6153,-3.6148,-3.6146,-3.6131,-3.6126,-3.6115,-3.6107,-3.6104,-3.6087,-3.6076,-3.6061,-3.6045,-3.6037,-3.6032,-3.6027,-3.6038,-3.6036,-3.6041,-3.6041,-3.6056,-3.6057,-3.6034,-3.6034,-3.6034,0,-3.6197,-3.6193,-3.6177,-3.6172,-3.6165,-3.6157,-3.6151,-3.6136,-3.613,-3.6115,-3.6112,-3.6101,-3.6092,-3.6076,-3.6062,-3.605,-3.6045,-3.6051,-3.6043,-3.6048,-3.6046,-3.6047,-3.6047,-3.6053,-3.6053,-3.6053,-3.6053,0,-3.6208,-3.6203,-3.6194,-3.6185,-3.6178,-3.6169,-3.616,-3.6157,-3.6139,-3.6133,-3.6124,-3.6117,-3.6103,-3.6092,-3.608,-3.607,-3.6059,-3.6057,-3.6057,-3.6062,-3.6069,-3.6066,-3.6044,-3.6056,-3.6056,-3.6056,-3.6055,-3.6055,-3.6219,-3.6216,-3.6205,-3.6197,-3.6189,-3.6181,-3.6176,-3.6166,-3.6158,-3.6146,-3.6138,-3.6129,-3.6117,-3.6099,-3.609,-3.6084,-3.6078,-3.6078,-3.6079,-3.6079,-3.6082,-3.607,-3.6081,-3.6081,-3.6081,-3.6081,-3.6081,0,-3.623,-3.6223,-3.6216,-3.6204,-3.6198,-3.6191,-3.618,-3.6176,-3.6169,-3.6159,-3.6151,-3.6141,-3.6132,-3.6117,-3.6107,-3.6104,-3.6099,-3.6102,-3.6102,-3.6101,-3.6086,-3.6087,-3.6107,-3.6107,-3.6107,-3.6107,-3.6107,-3.6107,-3.6235,-3.6231,-3.6224,-3.6216,-3.6208,-3.6201,-3.6196,-3.6189,-3.6181,-3.6171,-3.6164,-3.6156,-3.6144,-3.6133,-3.6125,-3.6121,-3.6118,-3.6123,-3.6118,-3.6104,-3.6101,-3.6099,-3.61,-3.6122,-3.6122,-3.6133,-3.6133,-3.6133]}]]